#timestamp,LO_Frequency,Hit,StdDev 
1610830815.4,286046993.0,N
1610830835.2,286046993.0,N
1610830855.1,286046993.2,N
1610830856.0,286046993.2,N
1610830875.8,286046990.2,N
1610830895.7,286046986.3,Y
1610830915.5,286046996.8,P
1610830935.3,286046999.3,P
1610830955.2,286046997.4,N
1610830975.0,286047000.6,N
1610830975.9,286047000.6,N
1610830995.8,286047002.4,N
1610831015.6,286047000.7,N
1610831035.4,286047001.0,N
1610831055.3,286046999.3,N
1610831075.1,286046996.8,N
1610831095.8,286046996.8,N
1610831115.7,286046997.0,N
1610831135.5,286046997.6,N
1610831155.4,286046993.8,Y
1610831175.2,286046998.0,P
1610831195.0,286046996.9,P
1610831195.9,286046996.9,P
1610831215.8,286046996.9,Y
1610831235.6,286046998.8,P
1610831255.5,286046997.1,P
1610831275.3,286046999.1,N
1610831295.1,286046997.7,N
1610831315.9,286046995.4,Y
1610831335.7,286047001.1,P
1610831355.6,286047000.0,N
1610831375.4,286047000.6,N
1610831395.2,286047000.4,N
1610831415.1,286047002.6,N
1610831416.0,286047002.6,N
1610831435.8,286046998.3,N
1610831455.6,286046996.7,N
1610831475.5,286046999.1,N
1610831495.3,286046996.9,N
1610831515.2,286047000.7,N
1610831535.9,286046999.0,N
1610831555.7,286046999.5,N
1610831575.6,286046998.1,N
1610831595.4,286047002.6,N
1610831615.3,286047011.9,Y
1610831635.1,286047000.3,P
1610831636.0,286047000.3,N
1610831655.8,286046999.9,N
1610831675.7,286047000.7,N
1610831695.5,286047001.9,Y
1610831715.4,286046999.9,P
1610831735.2,286047000.0,N
1610831755.0,286046996.6,P
1610831755.9,286046996.6,N
1610831775.8,286046997.8,N
1610831795.6,286046997.8,N
1610831815.4,286046997.4,N
1610831835.3,286046997.0,N
1610831855.1,286046999.5,N
1610831875.9,286046997.6,N
1610831895.7,286046995.2,Y
1610831915.5,286046997.2,P
1610831935.4,286046996.8,P
1610831955.2,286047000.3,N
1610831975.1,286047005.7,Y
1610831976.0,286047005.7,P
1610831995.8,286047004.7,N
1610832015.6,286047003.3,N
1610832035.5,286047003.2,N
1610832055.3,286047006.9,N
1610832075.1,286047007.4,N
1610832095.9,286047005.2,N
1610832115.7,286047003.1,N
1610832135.6,286047003.3,N
1610832155.4,286047003.2,N
1610832175.2,286047003.8,N
1610832195.1,286047003.8,N
1610832196.0,286047003.8,N
1610832215.8,286047002.0,N
1610832235.7,286047002.3,N
1610832255.5,286047004.4,N
1610832275.3,286047001.6,N
1610832295.2,286046998.1,N
1610832315.0,286046999.4,N
1610832315.9,286046999.4,N
1610832335.7,286047000.7,N
1610832355.6,286047002.3,N
1610832375.4,286047007.3,N
1610832395.3,286047005.7,N
1610832415.1,286047005.9,N
1610832435.8,286047004.8,N
1610832455.7,286047007.5,N
1610832475.5,286047006.4,N
1610832495.4,286047004.8,N
1610832515.2,286047007.2,N
1610832535.0,286047003.4,N
1610832535.9,286047003.4,N
1610832555.8,286047001.4,N
1610832575.6,286047001.6,N
1610832595.4,286046999.8,N
1610832615.3,286047000.7,N
1610832635.1,286046999.8,N
1610832655.9,286047001.2,N
1610832675.7,286047004.4,N
1610832695.5,286047004.3,N
1610832715.4,286047004.4,N
1610832735.2,286047001.4,N
1610832755.1,286047001.4,N
1610832756.0,286047001.4,N
1610832775.8,286047004.2,N
1610832795.6,286047005.2,N
1610832815.5,286047009.5,Y
1610832835.3,286047007.1,P
1610832855.2,286047004.6,N
1610832875.9,286047008.9,P
1610832895.7,286047005.6,N
1610832915.6,286047003.7,N
1610832935.4,286047005.9,N
1610832955.2,286047002.9,N
1610832975.1,286047006.9,Y
1610832976.0,286047006.9,P
1610832995.8,286047003.3,P
1610833015.7,286047002.7,N
1610833035.5,286047001.2,N
1610833055.3,286046996.7,N
1610833075.2,286046998.7,N
1610833095.0,286046997.4,N
1610833095.9,286046997.4,N
1610833115.8,286046993.7,N
1610833135.6,286046996.3,N
1610833155.4,286046996.2,N
1610833175.3,286046996.0,N
1610833195.1,286046996.9,N
1610833215.8,286046995.3,N
1610833235.7,286046993.4,N
1610833255.5,286046995.2,N
1610833275.4,286046996.2,N
1610833295.2,286046996.2,N
1610833315.0,286046998.2,N
1610833315.9,286046998.2,N
1610833335.8,286047002.4,N
1610833355.6,286047000.7,N
1610833375.5,286046996.8,N
1610833395.3,286046998.3,N
1610833415.1,286046999.3,N
1610833435.9,286046998.9,N
1610833455.7,286046999.5,N
1610833475.5,286046998.8,N
1610833495.4,286046997.3,N
1610833515.2,286046995.1,N
1610833535.1,286046998.0,N
1610833536.0,286046998.0,N
1610833555.8,286046997.1,N
1610833575.6,286046999.6,N
1610833595.5,286046996.9,N
1610833615.3,286046997.4,N
1610833635.1,286046997.6,N
1610833655.9,286046998.0,N
1610833675.7,286046998.8,N
1610833695.6,286046995.0,N
1610833715.4,286046997.9,N
1610833735.2,286046995.5,N
1610833755.1,286046996.3,N
1610833756.0,286046996.3,N
1610833775.8,286046995.8,N
1610833795.7,286046996.3,N
1610833815.5,286046993.7,Y
1610833835.3,286046996.9,P
1610833855.2,286046996.6,P
1610833875.0,286046997.1,P
1610833875.9,286046997.1,Y
1610833895.8,286047000.2,P
1610833915.6,286047001.6,N
1610833935.4,286047002.8,N
1610833955.3,286047000.3,N
1610833975.1,286046997.0,N
1610833995.8,286046997.8,N
1610834015.7,286047000.0,N
1610834035.5,286047003.1,N
1610834055.4,286047001.4,N
1610834075.2,286047001.3,N
1610834095.0,286046999.8,N
1610834095.9,286046999.8,N
1610834115.8,286047000.8,N
1610834135.6,286046998.7,N
1610834155.5,286046998.8,N
1610834175.3,286046996.6,N
1610834195.1,286046996.8,N
1610834215.9,286046997.6,N
1610834235.7,286046995.4,N
1610834255.5,286046995.8,N
1610834275.4,286046995.2,N
1610834295.2,286046996.6,N
1610834315.1,286047000.6,N
1610834316.0,286047000.6,N
1610834335.8,286047001.9,N
1610834355.6,286047003.2,N
1610834375.5,286047004.1,N
1610834395.3,286047002.5,N
